KB1JDX Weather Reports


time (UTC)temp
C
wind
direction
speed
KPH
gust
KPH
rain 1hr
cm
rain 24hr
cm
rain mn
cm
humidity
%
barometer
mb
20260507094037 10 294 0.0 11.3 0.08 0.58 0.30 100 1007.7
20260507092036 10 294 0.0 11.3 0.08 0.58 0.30 100 1007.5
20260507091927 10 294 0.0 11.3 0.08 0.58 0.30 100 1007.6
20260507090036 10 294 0.0 0.0 0.23 0.51 0.23 100 1007.5
20260507084036 10 307 0.0 0.0 0.23 0.51 0.23 100 1007.2
20260507082036 10 307 0.0 0.0 0.23 0.51 0.23 1 1007.3
20260507081927 10 307 0.0 0.0 0.23 0.51 0.23 1 1007.4
20260507080036 11 307 0.0 0.0 0.00 0.28 0.00 1 1007.4
20260507074036 11 307 0.0 0.0 0.00 0.28 0.00 6 1007.7
20260507072037 11 307 0.0 0.0 0.00 0.28 0.00 15 1007.9
20260507071927 11 307 0.0 0.0 0.00 0.28 0.00 15 1007.7
20260507070036 11 307 0.0 0.0 0.00 0.28 0.00 17 1006.9
20260507062036 12 210 0.0 0.0 0.00 0.28 0.00 100 1006.7
20260507061927 12 210 0.0 0.0 0.00 0.28 0.00 100 1006.8
20260507060035 12 210 0.0 0.0 0.00 0.28 0.00 100 1006.5
20260507054035 13 210 0.0 0.0 0.00 0.28 0.00 100 1006.7
20260507052036 13 210 0.0 0.0 0.00 0.28 0.00 100 1007.1
20260507051927 13 210 0.0 0.0 0.00 0.28 0.00 100 1007.1
20260507050035 13 210 0.0 0.0 0.00 0.28 0.00 100 1007.2
20260507044035 13 210 0.0 0.0 0.00 0.28 0.00 100 1007.0
20260507042035 13 210 0.0 0.0 0.00 0.28 0.00 100 1007.1
20260507041927 13 210 0.0 0.0 0.00 0.28 0.00 100 1007.1
20260507040036 14 210 0.0 0.0 0.00 0.28 0.28 100 1007.1
20260507034036 14 210 0.0 0.0 0.00 0.28 0.28 100 1006.9
20260507032036 14 210 0.0 0.0 0.00 0.28 0.28 100 1006.7
20260507031927 14 210 0.0 0.0 0.00 0.28 0.28 100 1006.7
20260507030036 14 210 0.0 8.0 0.00 0.28 0.28 100 1006.9
20260507024035 14 231 0.0 8.0 0.00 0.28 0.28 100 1006.8
20260507022036 13 204 0.0 8.0 0.00 0.28 0.28 100 1006.8
20260507021927 13 205 0.0 8.0 0.00 0.28 0.28 100 1006.8
20260507020035 13 238 11.3 6.4 0.00 0.28 0.28 100 1006.9
20260507014035 13 196 0.0 6.4 0.00 0.28 0.28 100 1006.8
20260507012035 13 192 0.0 6.4 0.00 0.28 0.28 100 1006.7
20260507011927 13 192 0.0 6.4 0.00 0.28 0.28 100 1006.8
20260507010036 13 184 0.0 19.3 0.00 0.28 0.28 100 1007.0
20260507004035 13 220 0.0 19.3 0.00 0.28 0.28 100 1007.2
20260507002035 13 202 0.0 19.3 0.00 0.28 0.28 100 1007.0
20260507001927 13 202 0.0 19.3 0.00 0.28 0.28 100 1007.0
20260507000035 13 221 0.0 16.1 0.05 0.28 0.28 100 1006.8
20260506234035 13 193 0.0 16.1 0.05 0.28 0.28 100 1006.9
20260506232035 13 213 0.0 16.1 0.05 0.28 0.28 100 1006.6
20260506231927 13 213 0.0 16.1 0.05 0.28 0.28 100 1006.6
20260506230035 14 244 0.0 19.3 0.03 0.23 0.23 100 1006.6
20260506222035 14 173 0.0 19.3 0.03 0.23 0.23 100 1006.5
20260506221927 14 213 6.4 19.3 0.03 0.23 0.23 100 1006.5
20260506220035 14 244 8.0 29.0 0.00 0.20 0.20 100 1006.4
20260506214035 14 210 0.0 29.0 0.00 0.20 0.20 100 1006.8
20260506212036 14 184 0.0 29.0 0.00 0.20 0.20 100 1006.9
20260506211927 14 184 0.0 29.0 0.00 0.20 0.20 100 1006.9
20260506210035 15 182 0.0 20.9 0.13 0.20 0.20 100 1007.0
20260506201927 15 186 12.9 20.9 0.13 0.20 0.20 100 1007.5
20260506200035 15 207 0.0 20.9 0.08 0.08 0.08 100 1007.7
20260506194035 15 153 0.0 20.9 0.08 0.08 0.08 4 1007.8
20260506192240 15 181 8.0 20.9 0.08 0.08 0.08 10 1008.0
20260506192037 15 181 8.0 20.9 0.08 0.08 0.08 10 1008.0
20260506191927 15 188 6.4 20.9 0.08 0.08 0.08 11 1007.9
20260506190035 15 206 14.5 30.6 0.00 0.00 0.00 20 1007.9
20260506184035 15 203 0.0 30.6 0.00 0.00 0.00 30 1008.2
20260506182035 16 163 0.0 30.6 0.00 0.00 0.00 48 1008.6
20260506181927 16 208 11.3 30.6 0.00 0.00 0.00 48 1008.6
20260506180035 17 201 0.0 32.2 0.00 0.00 0.00 59 1008.7
20260506174038 17 199 12.9 32.2 0.00 0.00 0.00 62 1008.8
20260506172035 18 227 25.7 32.2 0.00 0.00 0.00 64 1009.0
20260506171927 18 211 4.8 32.2 0.00 0.00 0.00 64 1009.0
20260506170035 18 229 0.0 29.0 0.00 0.00 0.00 64 1008.8
20260506164036 19 167 3.2 29.0 0.00 0.00 0.00 65 1009.0
20260506162037 19 170 6.4 29.0 0.00 0.00 0.00 65 1009.2
20260506161927 19 202 17.7 29.0 0.00 0.00 0.00 65 1009.3
20260506160035 20 180 16.1 19.3 0.00 0.00 0.00 64 1009.5
20260506154036 20 209 0.0 19.3 0.00 0.00 0.00 64 1009.4
20260506152037 20 179 3.2 19.3 0.00 0.00 0.00 64 1009.6
20260506151927 20 147 3.2 19.3 0.00 0.00 0.00 64 1009.6
20260506150036 20 234 1.6 29.0 0.00 0.00 0.00 64 1009.8
20260506144036 19 185 0.0 29.0 0.00 0.00 0.00 64 1009.8
20260506142035 18 199 0.0 29.0 0.00 0.00 0.00 64 1009.8
20260506141926 18 184 1.6 29.0 0.00 0.00 0.00 63 1009.8
20260506140035 18 188 11.3 17.7 0.00 0.00 0.00 63 1009.8
20260506134037 18 176 0.0 17.7 0.00 0.00 0.00 61 1009.7
20260506132035 18 208 0.0 17.7 0.00 0.00 0.00 60 1009.9
20260506131927 18 175 11.3 17.7 0.00 0.00 0.00 60 1009.9
20260506130035 17 171 0.0 22.5 0.00 0.00 0.00 56 1010.4
20260506124036 16 187 16.1 22.5 0.00 0.00 0.00 45 1010.3
20260506122035 16 234 16.1 22.5 0.00 0.00 0.00 40 1010.4
20260506121926 16 205 8.0 22.5 0.00 0.00 0.00 40 1010.4
20260506120036 15 185 0.0 16.1 0.00 0.00 0.00 34 1010.4
20260506114036 15 180 1.6 16.1 0.00 0.00 0.00 25 1010.8
20260506112035 14 208 0.0 16.1 0.00 0.00 0.00 24 1010.8
20260506111926 14 218 0.0 16.1 0.00 0.00 0.00 24 1010.8
20260506110036 14 185 0.0 17.7 0.00 0.00 0.00 22 1010.7
20260506104034 14 188 0.0 17.7 0.00 0.00 0.00 24 1010.8
20260506102036 14 188 0.0 17.7 0.00 0.00 0.00 26 1010.6
20260506101926 14 189 0.0 17.7 0.00 0.00 0.00 26 1010.6
20260506100036 14 216 0.0 17.7 0.00 0.00 0.00 27 1010.5